• In Netherlands
  • List of Countries
  • For 7 days
  • Water Temperature
  • Satellite Maps
  • Weather Map
  • Weather Widgets
  • user-avatar
    Login

    Hourly Weather Viedma

    Today, 23 November, Thursday

    Time Temperature Precipitation Wind Pressure Humidity
    00:00 +13°C° 0 mm 2 mps 752 mmHg 66%
    01:00 +12°C° 0 mm 3 mps 751 mmHg 65%
    02:00 +12°C° 0 mm 3 mps 751 mmHg 63%
    03:00 +12°C° 0 mm 4 mps 751 mmHg 62%
    04:00 +13°C° 0 mm 6 mps 751 mmHg 60%
    05:00 +12°C° 0 mm 7 mps 751 mmHg 59%
    06:00 +12°C° 0 mm 9 mps 752 mmHg 58%
    07:00 +12°C° 0 mm 11 mps 753 mmHg 58%
    08:00 +12°C° 0 mm 12 mps 753 mmHg 57%
    09:00 +12°C° 0.1 mm 13 mps 754 mmHg 51%
    10:00 +12°C° 0.1 mm 13 mps 755 mmHg 45%
    11:00 +12°C° 0.1 mm 14 mps 756 mmHg 39%
    12:00 +13°C° 0 mm 14 mps 756 mmHg 36%
    13:00 +13°C° 0 mm 14 mps 756 mmHg 33%
    14:00 +13°C° 0 mm 14 mps 757 mmHg 30%
    15:00 +13°C° 0 mm 13 mps 757 mmHg 31%
    16:00 +12°C° 0 mm 13 mps 757 mmHg 33%
    17:00 +12°C° 0 mm 12 mps 757 mmHg 34%
    18:00 +11°C° 0 mm 11 mps 758 mmHg 37%
    19:00 +10°C° 0 mm 9 mps 758 mmHg 40%
    20:00 +9°C° 0 mm 8 mps 759 mmHg 44%
    21:00 +8°C° 0 mm 7 mps 759 mmHg 47%
    22:00 +8°C° 0 mm 6 mps 759 mmHg 50%
    23:00 +8°C° 0 mm 5 mps 759 mmHg 53%

    Tomorrow, 24 November, Friday

    Time Temperature Precipitation Wind Pressure Humidity
    00:00 +7°C° 0 mm 4 mps 759 mmHg 56%
    01:00 +8°C° 0 mm 3 mps 759 mmHg 58%
    02:00 +8°C° 0 mm 1 mps 759 mmHg 60%
    03:00 +7°C° 0 mm 2 mps 759 mmHg 59%
    04:00 +7°C° 0 mm 3 mps 759 mmHg 58%
    05:00 +6°C° 0 mm 4 mps 760 mmHg 58%
    06:00 +8°C° 0 mm 4 mps 760 mmHg 50%
    07:00 +11°C° 0 mm 4 mps 760 mmHg 42%
    08:00 +13°C° 0 mm 5 mps 760 mmHg 34%
    09:00 +15°C° 0 mm 5 mps 760 mmHg 29%
    10:00 +19°C° 0 mm 6 mps 760 mmHg 24%
    11:00 +21°C° 0 mm 6 mps 760 mmHg 19%
    12:00 +22°C° 0 mm 6 mps 759 mmHg 18%
    13:00 +23°C° 0 mm 6 mps 758 mmHg 17%
    14:00 +26°C° 0 mm 6 mps 757 mmHg 17%
    15:00 +26°C° 0 mm 6 mps 756 mmHg 17%
    16:00 +26°C° 0 mm 6 mps 755 mmHg 17%
    17:00 +26°C° 0 mm 6 mps 755 mmHg 17%
    18:00 +24°C° 0 mm 6 mps 754 mmHg 19%
    19:00 +23°C° 0 mm 6 mps 754 mmHg 21%
    20:00 +21°C° 0 mm 6 mps 754 mmHg 23%
    21:00 +21°C° 0 mm 6 mps 754 mmHg 24%
    22:00 +20°C° 0 mm 7 mps 754 mmHg 25%
    23:00 +20°C° 0 mm 7 mps 754 mmHg 26%

    Day after tomorrow, 25 November, Saturday

    Time Temperature Precipitation Wind Pressure Humidity
    00:00 +20°C° 0 mm 7 mps 754 mmHg 28%
    01:00 +18°C° 0 mm 7 mps 754 mmHg 29%
    02:00 +18°C° 0 mm 7 mps 754 mmHg 31%
    03:00 +19°C° 0 mm 6 mps 754 mmHg 36%
    04:00 +17°C° 0 mm 5 mps 754 mmHg 42%
    05:00 +16°C° 0 mm 5 mps 755 mmHg 47%
    06:00 +17°C° 0 mm 5 mps 755 mmHg 45%
    07:00 +20°C° 0 mm 6 mps 756 mmHg 42%
    08:00 +21°C° 0 mm 6 mps 756 mmHg 40%
    09:00 +22°C° 0 mm 6 mps 756 mmHg 37%
    10:00 +23°C° 0 mm 6 mps 756 mmHg 35%
    11:00 +24°C° 0 mm 6 mps 756 mmHg 33%
    12:00 +26°C° 0 mm 6 mps 756 mmHg 31%
    13:00 +26°C° 0 mm 6 mps 755 mmHg 30%
    14:00 +27°C° 0 mm 6 mps 755 mmHg 28%
    15:00 +27°C° 0 mm 5 mps 755 mmHg 28%
    16:00 +27°C° 0 mm 5 mps 754 mmHg 27%
    17:00 +28°C° 0 mm 4 mps 754 mmHg 27%
    18:00 +26°C° 0 mm 4 mps 754 mmHg 30%
    19:00 +24°C° 0 mm 3 mps 754 mmHg 34%
    20:00 +22°C° 0 mm 3 mps 754 mmHg 37%
    21:00 +21°C° 0 mm 4 mps 754 mmHg 40%
    22:00 +21°C° 0 mm 5 mps 753 mmHg 42%
    23:00 +20°C° 0 mm 6 mps 753 mmHg 45%

    26 November, Sunday

    Time Temperature Precipitation Wind Pressure Humidity
    00:00 +20°C° 0 mm 6 mps 753 mmHg 45%
    01:00 +19°C° 0 mm 6 mps 752 mmHg 45%
    02:00 +19°C° 0 mm 6 mps 752 mmHg 45%
    03:00 +19°C° 0 mm 6 mps 751 mmHg 44%
    04:00 +19°C° 0 mm 5 mps 751 mmHg 43%
    05:00 +19°C° 0 mm 5 mps 751 mmHg 41%
    06:00 +21°C° 0 mm 5 mps 751 mmHg 37%
    07:00 +25°C° 0 mm 5 mps 750 mmHg 32%
    08:00 +27°C° 0 mm 4 mps 750 mmHg 28%
    09:00 +28°C° 0 mm 5 mps 750 mmHg 25%
    10:00 +29°C° 0 mm 5 mps 750 mmHg 23%
    11:00 +32°C° 0 mm 5 mps 749 mmHg 21%
    12:00 +30°C° 0 mm 6 mps 749 mmHg 23%
    13:00 +29°C° 0 mm 7 mps 748 mmHg 24%
    14:00 +28°C° 0 mm 8 mps 748 mmHg 25%
    15:00 +27°C° 0 mm 8 mps 748 mmHg 28%
    16:00 +24°C° 0 mm 9 mps 748 mmHg 31%
    17:00 +23°C° 0 mm 9 mps 748 mmHg 34%
    18:00 +19°C° 0 mm 10 mps 750 mmHg 43%
    19:00 +17°C° 0 mm 12 mps 752 mmHg 53%
    20:00 +13°C° 0 mm 13 mps 754 mmHg 63%
    21:00 +13°C° 0 mm 12 mps 755 mmHg 56%
    22:00 +13°C° 0 mm 11 mps 756 mmHg 50%
    23:00 +12°C° 0 mm 11 mps 758 mmHg 43%

    27 November, Monday

    Time Temperature Precipitation Wind Pressure Humidity
    00:00 +12°C° 0 mm 10 mps 759 mmHg 45%
    01:00 +12°C° 0 mm 9 mps 759 mmHg 46%
    02:00 +11°C° 0 mm 8 mps 760 mmHg 47%
    03:00 +11°C° 0 mm 7 mps 761 mmHg 50%
    04:00 +11°C° 0 mm 7 mps 762 mmHg 52%
    05:00 +10°C° 0 mm 6 mps 763 mmHg 54%
    06:00 +11°C° 0 mm 7 mps 764 mmHg 49%
    07:00 +12°C° 0 mm 8 mps 764 mmHg 44%
    08:00 +13°C° 0 mm 9 mps 765 mmHg 38%
    09:00 +13°C° 0 mm 9 mps 765 mmHg 37%
    10:00 +15°C° 0 mm 9 mps 766 mmHg 35%
    11:00 +15°C° 0 mm 9 mps 766 mmHg 34%
    12:00 +16°C° 0 mm 8 mps 766 mmHg 33%
    13:00 +16°C° 0 mm 8 mps 766 mmHg 33%
    14:00 +16°C° 0 mm 7 mps 766 mmHg 33%
    15:00 +15°C° 0 mm 6 mps 766 mmHg 34%
    16:00 +15°C° 0 mm 5 mps 765 mmHg 35%
    17:00 +15°C° 0 mm 4 mps 765 mmHg 36%
    18:00 +13°C° 0 mm 4 mps 765 mmHg 40%
    19:00 +12°C° 0 mm 4 mps 765 mmHg 44%
    20:00 +11°C° 0 mm 3 mps 766 mmHg 48%
    21:00 +11°C° 0 mm 4 mps 765 mmHg 51%
    22:00 +10°C° 0 mm 4 mps 765 mmHg 54%
    23:00 +10°C° 0 mm 4 mps 765 mmHg 56%

    28 November, Tuesday

    Time Temperature Precipitation Wind Pressure Humidity
    00:00 +8°C° 0 mm 5 mps 765 mmHg 58%
    01:00 +8°C° 0 mm 5 mps 764 mmHg 59%
    02:00 +8°C° 0 mm 6 mps 763 mmHg 61%
    03:00 +8°C° 0 mm 6 mps 763 mmHg 62%
    04:00 +8°C° 0 mm 6 mps 763 mmHg 62%
    05:00 +8°C° 0 mm 6 mps 763 mmHg 63%
    06:00 +10°C° 0 mm 7 mps 763 mmHg 54%
    07:00 +14°C° 0 mm 7 mps 763 mmHg 45%
    08:00 +16°C° 0 mm 8 mps 763 mmHg 37%
    09:00 +20°C° 0 mm 8 mps 762 mmHg 31%
    10:00 +23°C° 0 mm 7 mps 762 mmHg 25%
    11:00 +26°C° 0 mm 7 mps 761 mmHg 20%
    12:00 +28°C° 0 mm 7 mps 761 mmHg 18%
    13:00 +29°C° 0 mm 6 mps 760 mmHg 17%
    14:00 +30°C° 0 mm 6 mps 759 mmHg 15%
    15:00 +30°C° 0 mm 5 mps 759 mmHg 15%
    16:00 +30°C° 0 mm 5 mps 758 mmHg 15%
    17:00 +30°C° 0 mm 4 mps 758 mmHg 15%
    18:00 +28°C° 0 mm 4 mps 758 mmHg 17%
    19:00 +26°C° 0 mm 4 mps 757 mmHg 20%
    20:00 +23°C° 0 mm 4 mps 757 mmHg 22%
    21:00 +22°C° 0 mm 5 mps 757 mmHg 24%
    22:00 +22°C° 0 mm 6 mps 757 mmHg 25%
    23:00 +21°C° 0 mm 7 mps 757 mmHg 26%
    Show more